Location: Jaite
(41.2884°N, 81.5737°W)
Time: 17:19:03
(UTC+00:00)

Cosmos 773 Rocket - Pass Details

Date: 18 January 2020
Orbit: 746 x 776 km, 74.1° (Epoch: 18 February)

Event Time Altitude Azimuth Distance (km) Brightness Sun altitude
Rises 11:06:53 0° 210° (SSW) 3,241 7.1 -18.8°
Reaches altitude 10° 11:09:18 10° 215° (SW) 2,318 6.3 -18.4°
Maximum altitude 11:14:28 55° 293° (WNW) 934 4.1 -17.4°
Drops below altitude 10° 11:19:40 10° 11° (N) 2,328 6.5 -16.5°
Sets 11:22:06 0° 16° (NNE) 3,257 7.3 -16.0°
